| time (UTC) | temp F | wind direction | speed MPH | gust MPH | rain 1hr in | rain 24hr in | rain mn in | humidity % | barometer mb |
| 20260502211546 | 72 | 10 | 5.0 | 9.0 | 0.00 | 0.10 | 0.00 | 38 | 1019.6 |
| 20260502210036 | 73 | 63 | 7.0 | 12.0 | 0.00 | 0.10 | 0.00 | 43 | 1019.9 |
| 20260502204533 | 72 | 72 | 7.0 | 12.0 | 0.00 | 0.10 | 0.00 | 40 | 1020.1 |
| 20260502203042 | 72 | 332 | 5.0 | 10.0 | 0.00 | 0.10 | 0.00 | 43 | 1020.1 |
| 20260502201538 | 72 | 64 | 4.0 | 13.0 | 0.00 | 0.10 | 0.00 | 45 | 1020.4 |
| 20260502200041 | 72 | 61 | 6.0 | 11.0 | 0.00 | 0.10 | 0.00 | 43 | 1020.6 |
| 20260502194535 | 71 | 69 | 7.0 | 12.0 | 0.00 | 0.13 | 0.00 | 41 | 1020.6 |
| 20260502193035 | 71 | 45 | 8.0 | 17.0 | 0.00 | 0.13 | 0.00 | 44 | 1020.7 |
| 20260502191533 | 71 | 61 | 5.0 | 12.0 | 0.00 | 0.13 | 0.00 | 47 | 1020.8 |
| 20260502190034 | 70 | 56 | 5.0 | 16.0 | 0.00 | 0.13 | 0.00 | 50 | 1020.6 |
| 20260502184543 | 70 | 24 | 4.0 | 13.0 | 0.00 | 0.14 | 0.00 | 49 | 1020.8 |
| 20260502183031 | 69 | 19 | 7.0 | 14.0 | 0.00 | 0.14 | 0.00 | 48 | 1020.7 |
| 20260502181528 | 69 | 58 | 6.0 | 13.0 | 0.00 | 0.14 | 0.00 | 49 | 1021.1 |
| 20260502163038 | 65 | 65 | 3.0 | 10.0 | 0.00 | 0.37 | 0.00 | 65 | 1022.5 |
| 20260502161538 | 64 | 0 | 1.0 | 7.0 | 0.00 | 0.37 | 0.00 | 66 | 1022.5 |
| 20260502151533 | 60 | 72 | 1.0 | 7.0 | 0.00 | 0.43 | 0.00 | 76 | 1022.6 |
| 20260502123032 | 49 | 0 | 0.0 | 1.0 | 0.00 | 0.68 | 0.00 | 91 | 1021.0 |
| 20260502121539 | 48 | 254 | 0.0 | 1.0 | 0.00 | 0.68 | 0.00 | 92 | 1020.6 |
| 20260502114532 | 48 | 0 | 0.0 | 2.0 | 0.00 | 0.72 | 0.00 | 92 | 1020.0 |
| 20260502113033 | 48 | 0 | 0.0 | 2.0 | 0.00 | 0.72 | 0.00 | 92 | 1019.8 |
| 20260502111532 | 48 | 0 | 0.0 | 2.0 | 0.00 | 0.72 | 0.00 | 92 | 1019.6 |
| 20260502110042 | 48 | 248 | 0.0 | 3.0 | 0.00 | 0.72 | 0.00 | 92 | 1019.7 |
| 20260502104543 | 48 | 238 | 1.0 | 3.0 | 0.00 | 0.84 | 0.00 | 92 | 1019.7 |
| 20260502103045 | 48 | 0 | 0.0 | 2.0 | 0.00 | 0.84 | 0.00 | 92 | 1019.3 |
| 20260502101545 | 48 | 251 | 1.0 | 2.0 | 0.00 | 0.84 | 0.00 | 93 | 1018.9 |
| 20260502071533 | 50 | 0 | 0.0 | 1.0 | 0.00 | 0.89 | 0.00 | 93 | 1018.1 |
| 20260502070038 | 50 | 0 | 0.0 | 2.0 | 0.00 | 0.89 | 0.00 | 92 | 1018.3 |
| 20260502064539 | 50 | 0 | 0.0 | 1.0 | 0.00 | 0.89 | 0.00 | 92 | 1018.2 |
| 20260502063033 | 51 | 0 | 0.0 | 1.0 | 0.00 | 0.89 | 0.00 | 92 | 1018.0 |
| 20260502061535 | 51 | 0 | 0.0 | 1.0 | 0.00 | 0.89 | 0.00 | 93 | 1017.9 |
| 20260502060031 | 51 | 0 | 0.0 | 2.0 | 0.00 | 0.89 | 0.00 | 93 | 1018.1 |
| 20260502054541 | 51 | 0 | 0.0 | 1.0 | 0.00 | 0.90 | 0.00 | 93 | 1018.3 |
| 20260502053048 | 52 | 0 | 0.0 | 1.0 | 0.00 | 0.90 | 0.00 | 93 | 1018.4 |
| 20260502051537 | 52 | 0 | 0.0 | 1.0 | 0.00 | 0.90 | 0.00 | 93 | 1018.3 |
| 20260502050033 | 52 | 0 | 0.0 | 1.0 | 0.00 | 0.90 | 0.00 | 93 | 1017.8 |
| 20260502044532 | 52 | 0 | 0.0 | 0.0 | 0.00 | 0.91 | 0.90 | 92 | 1017.6 |
| 20260502043032 | 52 | 63 | 0.0 | 0.0 | 0.00 | 0.91 | 0.90 | 93 | 1017.8 |
| 20260502041537 | 52 | 0 | 0.0 | 1.0 | 0.00 | 0.91 | 0.90 | 93 | 1017.6 |
| 20260502040035 | 52 | 0 | 0.0 | 0.0 | 0.00 | 0.91 | 0.90 | 93 | 1017.6 |
| 20260502034535 | 52 | 0 | 0.0 | 0.0 | 0.00 | 0.92 | 0.90 | 93 | 1017.8 |
| 20260502033038 | 52 | 0 | 0.0 | 0.0 | 0.00 | 0.92 | 0.90 | 93 | 1017.7 |
| 20260502031533 | 52 | 0 | 0.0 | 4.0 | 0.00 | 0.92 | 0.90 | 93 | 1017.8 |
| 20260502030032 | 53 | 35 | 3.0 | 8.0 | 0.00 | 0.92 | 0.90 | 92 | 1017.7 |
| 20260502024536 | 53 | 65 | 2.0 | 7.0 | 0.00 | 1.11 | 0.90 | 94 | 1017.3 |
| 20260502023033 | 53 | 0 | 0.0 | 2.0 | 0.00 | 1.11 | 0.90 | 94 | 1017.0 |
| 20260502021533 | 53 | 0 | 1.0 | 4.0 | 0.00 | 1.11 | 0.90 | 94 | 1016.8 |
| 20260502020032 | 52 | 0 | 0.0 | 2.0 | 0.00 | 1.11 | 0.90 | 94 | 1016.6 |
| 20260502014533 | 53 | 0 | 2.0 | 7.0 | 0.00 | 1.11 | 0.90 | 92 | 1016.2 |
| 20260502013042 | 53 | 0 | 0.0 | 3.0 | 0.00 | 1.11 | 0.90 | 92 | 1016.1 |
| 20260502011554 | 53 | 65 | 3.0 | 5.0 | 0.00 | 1.11 | 0.90 | 92 | 1015.9 |
| 20260502010037 | 53 | 61 | 4.0 | 8.0 | 0.00 | 1.11 | 0.90 | 91 | 1015.6 |
| 20260502004551 | 53 | 60 | 5.0 | 9.0 | 0.00 | 1.11 | 0.90 | 90 | 1015.3 |
| 20260502003031 | 53 | 51 | 4.0 | 10.0 | 0.00 | 1.11 | 0.90 | 90 | 1015.0 |
| 20260502001537 | 53 | 12 | 3.0 | 14.0 | 0.00 | 1.11 | 0.90 | 89 | 1015.1 |
| 20260502000045 | 54 | 60 | 10.0 | 25.0 | 0.00 | 1.11 | 0.90 | 88 | 1014.6 |
| 20260501234538 | 53 | 53 | 10.0 | 21.0 | 0.00 | 1.11 | 0.90 | 91 | 1014.4 |
| 20260501233035 | 54 | 55 | 11.0 | 22.0 | 0.00 | 1.11 | 0.90 | 91 | 1014.1 |
| 20260501231542 | 54 | 53 | 6.0 | 13.0 | 0.00 | 1.11 | 0.90 | 94 | 1014.1 |
| 20260501230033 | 54 | 63 | 7.0 | 14.0 | 0.01 | 1.11 | 0.90 | 95 | 1013.7 |
| 20260501224532 | 55 | 28 | 7.0 | 12.0 | 0.02 | 1.11 | 0.90 | 95 | 1013.8 |
| 20260501223033 | 55 | 29 | 2.0 | 8.0 | 0.05 | 1.11 | 0.90 | 96 | 1013.8 |
| 20260501221542 | 55 | 27 | 3.0 | 9.0 | 0.07 | 1.11 | 0.90 | 96 | 1013.5 |
| 20260501220042 | 55 | 22 | 8.0 | 16.0 | 0.09 | 1.10 | 0.89 | 96 | 1013.3 |
| 20260501214533 | 55 | 25 | 4.0 | 11.0 | 0.08 | 1.09 | 0.88 | 95 | 1013.5 |
| 20260501213038 | 55 | 60 | 3.0 | 7.0 | 0.05 | 1.05 | 0.85 | 94 | 1013.9 |